| time (UTC) | temp C | wind direction | speed KPH | gust KPH | rain 1hr cm | rain 24hr cm | rain mn cm | humidity % | barometer mb |
| 20260906052512 | 18 | 49 | 0.0 | 1.6 | 0.00 | 0.10 | 0.10 | 98 | 1014.3 |
| 20260906052012 | 18 | 49 | 0.0 | 1.6 | 0.00 | 0.10 | 0.10 | 98 | 1014.4 |
| 20260906051511 | 18 | 49 | 0.0 | 6.4 | 0.00 | 0.10 | 0.10 | 98 | 1014.4 |
| 20260906051012 | 18 | 42 | 3.2 | 6.4 | 0.00 | 0.10 | 0.10 | 98 | 1014.3 |
| 20260906050511 | 18 | 58 | 1.6 | 4.8 | 0.00 | 0.10 | 0.10 | 98 | 1014.3 |
| 20260906045515 | 18 | 58 | 0.0 | 1.6 | 0.00 | 0.10 | 0.10 | 98 | 1014.1 |
| 20260906045012 | 18 | 30 | 0.0 | 0.0 | 0.00 | 0.10 | 0.10 | 98 | 1014.1 |
| 20260906044512 | 18 | 30 | 0.0 | 0.0 | 0.00 | 0.10 | 0.10 | 98 | 1014.1 |
| 20260906044011 | 18 | 30 | 0.0 | 1.6 | 0.00 | 0.10 | 0.10 | 98 | 1014.1 |
| 20260906043510 | 18 | 30 | 0.0 | 1.6 | 0.00 | 0.10 | 0.10 | 98 | 1014.1 |
| 20260906043011 | 18 | 27 | 0.0 | 3.2 | 0.00 | 0.10 | 0.10 | 98 | 1014.1 |
| 20260906042511 | 18 | 27 | 0.0 | 3.2 | 0.00 | 0.10 | 0.10 | 98 | 1013.9 |
| 20260906042010 | 18 | 46 | 1.6 | 3.2 | 0.00 | 0.10 | 0.10 | 97 | 1013.8 |
| 20260906041510 | 18 | 58 | 1.6 | 4.8 | 0.00 | 0.10 | 0.10 | 97 | 1013.7 |
| 20260906041009 | 18 | 53 | 1.6 | 4.8 | 0.00 | 0.10 | 0.10 | 97 | 1013.9 |
| 20260906040509 | 18 | 73 | 3.2 | 4.8 | 0.00 | 0.10 | 0.10 | 98 | 1014.2 |
| 20260906035508 | 19 | 68 | 0.0 | 3.2 | 0.00 | 0.10 | 0.10 | 98 | 1014.2 |
| 20260906035011 | 19 | 70 | 0.0 | 4.8 | 0.00 | 0.10 | 0.10 | 97 | 1014.3 |
| 20260906034509 | 19 | 70 | 0.0 | 3.2 | 0.00 | 0.10 | 0.10 | 98 | 1014.5 |
| 20260906034008 | 19 | 74 | 0.0 | 3.2 | 0.00 | 0.10 | 0.10 | 98 | 1014.5 |
| 20260906033508 | 19 | 75 | 0.0 | 1.6 | 0.00 | 0.10 | 0.10 | 98 | 1014.5 |
| 20260906033007 | 19 | 75 | 0.0 | 3.2 | 0.00 | 0.10 | 0.10 | 97 | 1014.6 |
| 20260906032508 | 19 | 75 | 0.0 | 3.2 | 0.00 | 0.10 | 0.10 | 97 | 1014.6 |
| 20260906032007 | 19 | 75 | 1.6 | 3.2 | 0.00 | 0.10 | 0.10 | 97 | 1014.6 |
| 20260906031508 | 19 | 75 | 0.0 | 0.0 | 0.00 | 0.10 | 0.10 | 97 | 1014.6 |
| 20260906031008 | 19 | 75 | 0.0 | 3.2 | 0.00 | 0.10 | 0.10 | 97 | 1014.5 |
| 20260906030507 | 19 | 75 | 1.6 | 4.8 | 0.00 | 0.10 | 0.10 | 97 | 1014.5 |
| 20260906025509 | 20 | 74 | 1.6 | 3.2 | 0.00 | 0.10 | 0.10 | 97 | 1014.3 |
| 20260906025009 | 20 | 7 | 1.6 | 3.2 | 0.00 | 0.10 | 0.10 | 97 | 1014.3 |
| 20260906024528 | 20 | 23 | 1.6 | 4.8 | 0.00 | 0.10 | 0.10 | 97 | 1014.3 |
| 20260906024008 | 20 | 72 | 0.0 | 6.4 | 0.00 | 0.10 | 0.10 | 97 | 1014.2 |
| 20260906023508 | 20 | 86 | 1.6 | 3.2 | 0.00 | 0.10 | 0.10 | 97 | 1014.1 |
| 20260906023015 | 20 | 24 | 0.0 | 4.8 | 0.00 | 0.10 | 0.10 | 97 | 1014.0 |
| 20260906022508 | 20 | 24 | 1.6 | 4.8 | 0.00 | 0.10 | 0.10 | 97 | 1013.8 |
| 20260906022008 | 20 | 39 | 1.6 | 4.8 | 0.00 | 0.10 | 0.10 | 97 | 1013.9 |
| 20260906021510 | 20 | 55 | 1.6 | 4.8 | 0.00 | 0.10 | 0.10 | 97 | 1014.1 |
| 20260906021007 | 20 | 79 | 0.0 | 3.2 | 0.00 | 0.10 | 0.10 | 96 | 1014.1 |
| 20260906020508 | 20 | 70 | 0.0 | 1.6 | 0.00 | 0.10 | 0.10 | 96 | 1014.2 |
| 20260906015507 | 20 | 70 | 0.0 | 1.6 | 0.00 | 0.10 | 0.10 | 96 | 1014.1 |
| 20260906015005 | 20 | 70 | 0.0 | 1.6 | 0.00 | 0.10 | 0.10 | 96 | 1013.8 |
| 20260906014509 | 20 | 70 | 0.0 | 1.6 | 0.00 | 0.10 | 0.10 | 96 | 1014.0 |
| 20260906014009 | 20 | 70 | 0.0 | 1.6 | 0.00 | 0.10 | 0.10 | 96 | 1014.0 |
| 20260906013506 | 21 | 70 | 0.0 | 1.6 | 0.00 | 0.10 | 0.10 | 96 | 1014.0 |
| 20260906013015 | 21 | 70 | 0.0 | 1.6 | 0.00 | 0.10 | 0.10 | 96 | 1014.0 |
| 20260906012508 | 21 | 51 | 0.0 | 1.6 | 0.00 | 0.10 | 0.10 | 96 | 1014.0 |
| 20260906012005 | 21 | 50 | 0.0 | 4.8 | 0.00 | 0.10 | 0.10 | 96 | 1013.9 |
| 20260906011506 | 21 | 34 | 1.6 | 4.8 | 0.00 | 0.10 | 0.10 | 96 | 1013.6 |
| 20260906011004 | 21 | 74 | 0.0 | 1.6 | 0.00 | 0.10 | 0.10 | 96 | 1013.4 |
| 20260906010504 | 21 | 60 | 0.0 | 1.6 | 0.00 | 0.10 | 0.10 | 95 | 1013.4 |
| 20260906005505 | 21 | 60 | 0.0 | 1.6 | 0.00 | 0.10 | 0.10 | 95 | 1013.6 |
| 20260906005004 | 21 | 61 | 0.0 | 3.2 | 0.00 | 0.10 | 0.10 | 95 | 1013.5 |
| 20260906004505 | 22 | 61 | 0.0 | 3.2 | 0.00 | 0.10 | 0.10 | 95 | 1013.3 |
| 20260906004003 | 22 | 56 | 0.0 | 1.6 | 0.00 | 0.10 | 0.10 | 94 | 1013.3 |
| 20260906003504 | 22 | 54 | 0.0 | 0.0 | 0.00 | 0.10 | 0.10 | 94 | 1013.0 |
| 20260906003004 | 22 | 54 | 0.0 | 1.6 | 0.00 | 0.10 | 0.10 | 93 | 1012.9 |
| 20260906002503 | 22 | 54 | 0.0 | 1.6 | 0.00 | 0.10 | 0.10 | 93 | 1012.8 |
| 20260906002004 | 22 | 54 | 0.0 | 1.6 | 0.00 | 0.10 | 0.10 | 93 | 1012.8 |
| 20260906001503 | 23 | 54 | 0.0 | 3.2 | 0.00 | 0.10 | 0.10 | 92 | 1012.6 |
| 20260906001003 | 23 | 54 | 0.0 | 3.2 | 0.00 | 0.10 | 0.10 | 92 | 1012.5 |
| 20260906000502 | 23 | 54 | 0.0 | 3.2 | 0.00 | 0.10 | 0.10 | 91 | 1012.4 |
| 20260905235503 | 23 | 57 | 0.0 | 0.0 | 0.00 | 0.10 | 0.10 | 91 | 1012.4 |
| 20260905235004 | 23 | 57 | 0.0 | 1.6 | 0.00 | 0.10 | 0.10 | 90 | 1012.4 |
| 20260905234504 | 24 | 57 | 0.0 | 1.6 | 0.00 | 0.10 | 0.10 | 89 | 1012.3 |
| 20260905234003 | 24 | 57 | 0.0 | 3.2 | 0.00 | 0.10 | 0.10 | 88 | 1012.3 |
| 20260905233503 | 25 | 47 | 0.0 | 3.2 | 0.00 | 0.10 | 0.10 | 87 | 1012.3 |
| 20260905233003 | 25 | 15 | 0.0 | 3.2 | 0.00 | 0.10 | 0.10 | 88 | 1012.3 |
| 20260905232503 | 25 | 295 | 0.0 | 1.6 | 0.00 | 0.10 | 0.10 | 88 | 1012.3 |
| 20260905232003 | 25 | 295 | 0.0 | 1.6 | 0.00 | 0.10 | 0.10 | 87 | 1012.3 |
| 20260905231503 | 25 | 293 | 0.0 | 1.6 | 0.00 | 0.13 | 0.10 | 86 | 1012.3 |
| 20260905231002 | 26 | 294 | 0.0 | 1.6 | 0.00 | 0.13 | 0.10 | 86 | 1012.2 |
| 20260905230503 | 26 | 269 | 0.0 | 3.2 | 0.00 | 0.13 | 0.10 | 85 | 1012.1 |
| 20260905225502 | 27 | 283 | 0.0 | 3.2 | 0.00 | 0.13 | 0.10 | 79 | 1011.8 |
| 20260905225002 | 28 | 311 | 1.6 | 3.2 | 0.00 | 0.13 | 0.10 | 74 | 1011.7 |
| 20260905224502 | 29 | 353 | 0.0 | 3.2 | 0.00 | 0.13 | 0.10 | 73 | 1011.7 |
| 20260905224001 | 29 | 282 | 0.0 | 3.2 | 0.00 | 0.13 | 0.10 | 73 | 1011.8 |
| 20260905223501 | 29 | 210 | 0.0 | 4.8 | 0.00 | 0.13 | 0.10 | 72 | 1011.8 |
| 20260905223001 | 29 | 236 | 1.6 | 4.8 | 0.00 | 0.13 | 0.10 | 71 | 1011.9 |
| 20260905222502 | 29 | 141 | 0.0 | 8.0 | 0.00 | 0.13 | 0.10 | 75 | 1011.9 |
| 20260905222001 | 29 | 147 | 0.0 | 11.3 | 0.00 | 0.13 | 0.10 | 69 | 1011.9 |
| 20260905221500 | 29 | 205 | 4.8 | 12.9 | 0.00 | 0.13 | 0.10 | 71 | 1011.9 |
| 20260905221104 | 29 | 271 | 3.2 | 12.9 | 0.00 | 0.13 | 0.10 | 72 | 1011.8 |
| 20260905220600 | 29 | 215 | 4.8 | 14.5 | 0.00 | 0.13 | 0.10 | 72 | 1011.7 |
| 20260905220201 | 29 | 277 | 6.4 | 24.1 | 0.00 | 0.13 | 0.10 | 69 | 1011.9 |
| 20260905215602 | 29 | 270 | 9.7 | 24.1 | 0.00 | 0.13 | 0.10 | 66 | 1011.9 |
| 20260905215059 | 29 | 153 | 11.3 | 20.9 | 0.00 | 0.13 | 0.10 | 67 | 1011.9 |
| 20260905214601 | 29 | 200 | 8.0 | 16.1 | 0.00 | 0.13 | 0.10 | 70 | 1012.1 |
| 20260905214101 | 29 | 271 | 3.2 | 8.0 | 0.00 | 0.13 | 0.10 | 71 | 1011.9 |
| 20260905213558 | 29 | 303 | 1.6 | 12.9 | 0.00 | 0.13 | 0.10 | 71 | 1011.9 |
| 20260905213105 | 30 | 238 | 4.8 | 12.9 | 0.00 | 0.13 | 0.10 | 72 | 1011.9 |
| 20260905212557 | 30 | 236 | 4.8 | 11.3 | 0.00 | 0.13 | 0.10 | 71 | 1011.9 |
| 20260905212058 | 30 | 163 | 0.0 | 4.8 | 0.00 | 0.13 | 0.10 | 70 | 1011.9 |
| 20260905211600 | 30 | 127 | 1.6 | 9.7 | 0.00 | 0.13 | 0.10 | 70 | 1012.0 |
| 20260905211055 | 29 | 264 | 1.6 | 9.7 | 0.00 | 0.13 | 0.10 | 74 | 1012.3 |
| 20260905210553 | 29 | 198 | 1.6 | 6.4 | 0.00 | 0.13 | 0.10 | 71 | 1012.3 |
| 20260905210154 | 28 | 271 | 4.8 | 11.3 | 0.00 | 0.13 | 0.10 | 71 | 1012.3 |
| 20260905205554 | 28 | 263 | 3.2 | 11.3 | 0.00 | 0.13 | 0.10 | 71 | 1012.3 |
| 20260905205054 | 28 | 228 | 1.6 | 11.3 | 0.00 | 0.13 | 0.10 | 72 | 1012.3 |
| 20260905204554 | 27 | 142 | 0.0 | 11.3 | 0.00 | 0.13 | 0.10 | 76 | 1012.4 |
| 20260905204052 | 27 | 229 | 4.8 | 12.9 | 0.00 | 0.13 | 0.10 | 76 | 1012.7 |
| 20260905203552 | 27 | 211 | 4.8 | 12.9 | 0.00 | 0.13 | 0.10 | 77 | 1012.8 |
| 20260905203055 | 26 | 295 | 4.8 | 11.3 | 0.00 | 0.13 | 0.10 | 76 | 1012.8 |
| 20260905202552 | 26 | 274 | 8.0 | 11.3 | 0.00 | 0.13 | 0.10 | 76 | 1012.9 |
| 20260905202052 | 27 | 266 | 4.8 | 9.7 | 0.00 | 0.13 | 0.10 | 76 | 1012.9 |
| 20260905201609 | 27 | 219 | 1.6 | 14.5 | 0.00 | 0.15 | 0.10 | 77 | 1013.0 |
| 20260905201052 | 26 | 272 | 4.8 | 14.5 | 0.00 | 0.15 | 0.10 | 77 | 1013.0 |
| 20260905200551 | 26 | 231 | 4.8 | 11.3 | 0.00 | 0.15 | 0.10 | 78 | 1013.1 |
| 20260905200151 | 25 | 251 | 4.8 | 11.3 | 0.00 | 0.15 | 0.10 | 80 | 1013.2 |
| 20260905195553 | 25 | 269 | 4.8 | 12.9 | 0.00 | 0.15 | 0.10 | 80 | 1013.2 |
| 20260905195050 | 25 | 289 | 4.8 | 14.5 | 0.00 | 0.15 | 0.10 | 82 | 1013.2 |
| 20260905194551 | 25 | 266 | 9.7 | 14.5 | 0.00 | 0.15 | 0.10 | 80 | 1013.2 |
| 20260905194054 | 25 | 262 | 3.2 | 11.3 | 0.00 | 0.15 | 0.10 | 80 | 1013.2 |
| 20260905193551 | 25 | 235 | 3.2 | 11.3 | 0.00 | 0.15 | 0.10 | 79 | 1013.1 |
| 20260905193104 | 25 | 263 | 3.2 | 9.7 | 0.00 | 0.15 | 0.10 | 79 | 1013.3 |
| 20260905192550 | 25 | 255 | 4.8 | 12.9 | 0.00 | 0.15 | 0.10 | 80 | 1013.3 |
| 20260905192050 | 25 | 220 | 4.8 | 16.1 | 0.00 | 0.15 | 0.10 | 80 | 1013.4 |
| 20260905191550 | 25 | 289 | 8.0 | 16.1 | 0.00 | 0.15 | 0.10 | 79 | 1013.5 |
| 20260905191051 | 25 | 213 | 4.8 | 12.9 | 0.00 | 0.15 | 0.10 | 80 | 1013.3 |
| 20260905190550 | 25 | 8 | 4.8 | 12.9 | 0.00 | 0.15 | 0.10 | 78 | 1013.2 |
| 20260905190150 | 25 | 260 | 6.4 | 14.5 | 0.00 | 0.15 | 0.10 | 79 | 1013.2 |
| 20260905185550 | 25 | 356 | 0.0 | 14.5 | 0.00 | 0.15 | 0.10 | 81 | 1013.3 |
| 20260905185053 | 25 | 281 | 1.6 | 11.3 | 0.00 | 0.15 | 0.10 | 81 | 1013.4 |
| 20260905184554 | 25 | 200 | 3.2 | 16.1 | 0.00 | 0.15 | 0.10 | 80 | 1013.4 |
| 20260905184050 | 25 | 15 | 4.8 | 16.1 | 0.00 | 0.15 | 0.10 | 80 | 1013.2 |
| 20260905183550 | 25 | 178 | 3.2 | 9.7 | 0.00 | 0.15 | 0.10 | 79 | 1013.2 |
| 20260905183050 | 25 | 324 | 3.2 | 11.3 | 0.00 | 0.15 | 0.10 | 81 | 1013.0 |
| 20260905182552 | 25 | 285 | 3.2 | 9.7 | 0.00 | 0.15 | 0.10 | 84 | 1013.1 |
| 20260905182052 | 25 | 243 | 1.6 | 6.4 | 0.00 | 0.15 | 0.10 | 86 | 1012.8 |
| 20260905181605 | 25 | 82 | 1.6 | 8.0 | 0.00 | 0.15 | 0.10 | 83 | 1012.4 |
| 20260905181048 | 26 | 302 | 1.6 | 8.0 | 0.00 | 0.15 | 0.10 | 74 | 1012.4 |
| 20260905180547 | 26 | 1 | 1.6 | 8.0 | 0.00 | 0.15 | 0.10 | 79 | 1013.0 |
| 20260905180147 | 27 | 233 | 3.2 | 27.4 | 0.00 | 0.15 | 0.10 | 74 | 1013.3 |
| 20260905175546 | 27 | 292 | 9.7 | 27.4 | 0.00 | 0.15 | 0.10 | 72 | 1013.6 |
| 20260905175045 | 28 | 211 | 1.6 | 6.4 | 0.00 | 0.15 | 0.10 | 73 | 1014.2 |
| 20260905174545 | 29 | 313 | 0.0 | 11.3 | 0.00 | 0.15 | 0.10 | 73 | 1014.5 |
| 20260905174045 | 30 | 286 | 3.2 | 8.0 | 0.00 | 0.15 | 0.10 | 69 | 1014.4 |
| 20260905173545 | 30 | 53 | 3.2 | 8.0 | 0.03 | 0.15 | 0.10 | 66 | 1014.1 |
| 20260905173046 | 30 | 351 | 3.2 | 8.0 | 0.03 | 0.15 | 0.10 | 67 | 1014.3 |
| 20260905172544 | 30 | 49 | 0.0 | 17.7 | 0.05 | 0.15 | 0.10 | 67 | 1014.5 |
| 20260905172045 | 31 | 39 | 4.8 | 17.7 | 0.05 | 0.15 | 0.10 | 64 | 1014.4 |
| 20260905171545 | 31 | 358 | 3.2 | 9.7 | 0.05 | 0.15 | 0.10 | 64 | 1014.4 |
| 20260905171044 | 31 | 44 | 1.6 | 19.3 | 0.05 | 0.15 | 0.10 | 63 | 1014.4 |
| 20260905170544 | 31 | 27 | 9.7 | 25.7 | 0.05 | 0.15 | 0.10 | 60 | 1014.4 |
| 20260905170143 | 32 | 55 | 9.7 | 25.7 | 0.05 | 0.15 | 0.10 | 60 | 1014.3 |
| 20260905165543 | 32 | 57 | 4.8 | 11.3 | 0.05 | 0.15 | 0.10 | 59 | 1014.2 |
| 20260905165042 | 33 | 99 | 0.0 | 14.5 | 0.05 | 0.15 | 0.10 | 62 | 1014.2 |
| 20260905164543 | 33 | 86 | 4.8 | 14.5 | 0.05 | 0.15 | 0.10 | 58 | 1014.2 |
| 20260905164044 | 33 | 18 | 1.6 | 12.9 | 0.05 | 0.15 | 0.10 | 59 | 1014.1 |
| 20260905163541 | 33 | 96 | 6.4 | 12.9 | 0.03 | 0.13 | 0.08 | 60 | 1014.2 |
| 20260905163039 | 33 | 155 | 1.6 | 8.0 | 0.03 | 0.13 | 0.08 | 61 | 1014.1 |
| 20260905162537 | 33 | 105 | 0.0 | 4.8 | 0.03 | 0.13 | 0.08 | 62 | 1014.1 |
| 20260905162040 | 32 | 148 | 1.6 | 4.8 | 0.00 | 0.10 | 0.05 | 64 | 1014.1 |
| 20260905161549 | 32 | 277 | 0.0 | 1.6 | 0.00 | 0.10 | 0.05 | 70 | 1014.1 |
| 20260905161036 | 32 | 236 | 0.0 | 1.6 | 0.00 | 0.10 | 0.05 | 71 | 1014.4 |
| 20260905160536 | 31 | 79 | 0.0 | 1.6 | 0.00 | 0.10 | 0.05 | 72 | 1014.5 |
| 20260905160139 | 31 | 76 | 1.6 | 4.8 | 0.00 | 0.10 | 0.05 | 72 | 1014.7 |
| 20260905155538 | 31 | 78 | 1.6 | 4.8 | 0.00 | 0.10 | 0.05 | 71 | 1014.7 |
| 20260905155036 | 31 | 83 | 1.6 | 3.2 | 0.03 | 0.10 | 0.05 | 70 | 1014.7 |
| 20260905154540 | 32 | 101 | 0.0 | 4.8 | 0.03 | 0.10 | 0.05 | 67 | 1014.6 |
| 20260905154039 | 32 | 95 | 1.6 | 4.8 | 0.03 | 0.10 | 0.05 | 67 | 1014.7 |
| 20260905153534 | 32 | 104 | 1.6 | 6.4 | 0.03 | 0.10 | 0.05 | 69 | 1014.6 |
| 20260905153033 | 32 | 142 | 0.0 | 6.4 | 0.03 | 0.10 | 0.05 | 70 | 1014.6 |
| 20260905152532 | 32 | 188 | 0.0 | 4.8 | 0.03 | 0.10 | 0.05 | 69 | 1014.4 |
| 20260905152030 | 31 | 207 | 0.0 | 4.8 | 0.03 | 0.10 | 0.05 | 70 | 1014.4 |
| 20260905151531 | 31 | 73 | 0.0 | 4.8 | 0.03 | 0.13 | 0.05 | 72 | 1014.2 |
| 20260905151032 | 30 | 229 | 0.0 | 8.0 | 0.03 | 0.13 | 0.05 | 74 | 1014.2 |
| 20260905150530 | 30 | 226 | 3.2 | 9.7 | 0.03 | 0.13 | 0.05 | 74 | 1014.4 |
| 20260905150127 | 30 | 260 | 3.2 | 6.4 | 0.03 | 0.13 | 0.05 | 74 | 1014.5 |
| 20260905145525 | 30 | 254 | 1.6 | 6.4 | 0.05 | 0.13 | 0.05 | 75 | 1014.6 |
| 20260905145025 | 29 | 220 | 0.0 | 8.0 | 0.05 | 0.13 | 0.05 | 75 | 1014.6 |
| 20260905144524 | 29 | 213 | 1.6 | 8.0 | 0.03 | 0.10 | 0.03 | 77 | 1014.7 |
| 20260905144030 | 28 | 195 | 1.6 | 8.0 | 0.03 | 0.10 | 0.03 | 75 | 1014.7 |
| 20260905143528 | 28 | 259 | 3.2 | 9.7 | 0.03 | 0.10 | 0.03 | 77 | 1014.9 |
| 20260905143026 | 28 | 221 | 1.6 | 9.7 | 0.03 | 0.10 | 0.03 | 79 | 1014.9 |
| 20260905142522 | 29 | 263 | 1.6 | 4.8 | 0.03 | 0.10 | 0.03 | 75 | 1015.0 |
| 20260905142022 | 28 | 141 | 0.0 | 0.0 | 0.03 | 0.10 | 0.03 | 79 | 1015.0 |
| 20260905141522 | 28 | 161 | 0.0 | 1.6 | 0.03 | 0.10 | 0.03 | 80 | 1015.0 |
| 20260905141019 | 27 | 229 | 0.0 | 1.6 | 0.03 | 0.10 | 0.03 | 81 | 1015.0 |
| 20260905140518 | 27 | 75 | 0.0 | 3.2 | 0.03 | 0.10 | 0.03 | 81 | 1015.0 |
| 20260905140117 | 26 | 77 | 0.0 | 3.2 | 0.03 | 0.10 | 0.03 | 83 | 1014.9 |
| 20260905135517 | 26 | 77 | 0.0 | 3.2 | 0.03 | 0.10 | 0.03 | 84 | 1014.9 |
| 20260905135017 | 25 | 77 | 0.0 | 4.8 | 0.00 | 0.08 | 0.00 | 84 | 1014.9 |
| 20260905134514 | 25 | 75 | 1.6 | 4.8 | 0.00 | 0.08 | 0.00 | 85 | 1015.0 |
| 20260905134013 | 25 | 83 | 1.6 | 4.8 | 0.00 | 0.08 | 0.00 | 86 | 1015.0 |
| 20260905133512 | 25 | 85 | 1.6 | 4.8 | 0.00 | 0.08 | 0.00 | 89 | 1015.1 |
| 20260905133011 | 24 | 79 | 0.0 | 3.2 | 0.00 | 0.08 | 0.00 | 91 | 1015.1 |
| 20260905132510 | 24 | 63 | 0.0 | 3.2 | 0.00 | 0.08 | 0.00 | 90 | 1015.3 |
| 20260905132011 | 24 | 54 | 0.0 | 3.2 | 0.00 | 0.08 | 0.00 | 90 | 1015.2 |
| 20260905131506 | 23 | 54 | 0.0 | 1.6 | 0.00 | 0.08 | 0.00 | 92 | 1015.2 |
| 20260905131008 | 23 | 54 | 0.0 | 1.6 | 0.00 | 0.08 | 0.00 | 94 | 1015.4 |
| 20260905130505 | 22 | 54 | 0.0 | 1.6 | 0.00 | 0.08 | 0.00 | 95 | 1015.5 |
| 20260905130104 | 22 | 54 | 0.0 | 4.8 | 0.00 | 0.08 | 0.00 | 97 | 1015.6 |
| 20260905125503 | 22 | 53 | 0.0 | 4.8 | 0.00 | 0.08 | 0.00 | 97 | 1015.8 |
| 20260905125004 | 21 | 56 | 0.0 | 6.4 | 0.00 | 0.08 | 0.00 | 98 | 1015.8 |
| 20260905124604 | 21 | 57 | 3.2 | 6.4 | 0.00 | 0.08 | 0.00 | 99 | 1015.9 |
| 20260905124100 | 21 | 40 | 1.6 | 4.8 | 0.00 | 0.08 | 0.00 | 100 | 1015.9 |
| 20260905123558 | 20 | 72 | 0.0 | 4.8 | 0.00 | 0.08 | 0.00 | 100 | 1015.9 |
| 20260905123058 | 20 | 40 | 1.6 | 8.0 | 0.00 | 0.08 | 0.00 | 100 | 1015.8 |
| 20260905122557 | 20 | 46 | 4.8 | 8.0 | 0.00 | 0.08 | 0.00 | 100 | 1015.7 |
| 20260905122057 | 20 | 52 | 1.6 | 6.4 | 0.00 | 0.08 | 0.00 | 100 | 1015.7 |
| 20260905121559 | 20 | 66 | 0.0 | 4.8 | 0.00 | 0.08 | 0.00 | 100 | 1015.8 |
| 20260905121056 | 19 | 51 | 0.0 | 4.8 | 0.00 | 0.08 | 0.00 | 100 | 1015.7 |
| 20260905120558 | 19 | 51 | 1.6 | 4.8 | 0.00 | 0.08 | 0.00 | 100 | 1015.5 |
| 20260905120056 | 19 | 72 | 0.0 | 1.6 | 0.00 | 0.08 | 0.00 | 100 | 1015.5 |
| 20260905115555 | 19 | 72 | 0.0 | 1.6 | 0.00 | 0.08 | 0.00 | 100 | 1015.5 |
| 20260905115056 | 18 | 72 | 0.0 | 4.8 | 0.00 | 0.08 | 0.00 | 100 | 1015.3 |
| 20260905114654 | 18 | 72 | 0.0 | 4.8 | 0.00 | 0.08 | 0.00 | 100 | 1015.2 |
| 20260905114054 | 19 | 53 | 0.0 | 3.2 | 0.00 | 0.08 | 0.00 | 100 | 1015.2 |
| 20260905113554 | 18 | 54 | 0.0 | 3.2 | 0.00 | 0.08 | 0.00 | 100 | 1015.1 |
| 20260905113053 | 18 | 63 | 1.6 | 3.2 | 0.00 | 0.08 | 0.00 | 100 | 1015.1 |
| 20260905112554 | 18 | 68 | 1.6 | 3.2 | 0.00 | 0.08 | 0.00 | 100 | 1015.0 |
| 20260905112053 | 19 | 68 | 0.0 | 1.6 | 0.00 | 0.08 | 0.00 | 100 | 1014.9 |
| 20260905111604 | 19 | 68 | 0.0 | 1.6 | 0.00 | 0.08 | 0.00 | 100 | 1014.9 |
| 20260905111054 | 18 | 68 | 0.0 | 1.6 | 0.00 | 0.08 | 0.00 | 100 | 1014.7 |
| 20260905110552 | 18 | 56 | 0.0 | 1.6 | 0.00 | 0.08 | 0.00 | 100 | 1014.5 |
| 20260905110058 | 19 | 56 | 0.0 | 3.2 | 0.00 | 0.08 | 0.00 | 100 | 1014.5 |
| 20260905105553 | 19 | 56 | 0.0 | 3.2 | 0.00 | 0.08 | 0.00 | 100 | 1014.5 |
| 20260905105054 | 19 | 56 | 0.0 | 3.2 | 0.00 | 0.08 | 0.00 | 100 | 1014.5 |
| 20260905104610 | 19 | 59 | 0.0 | 3.2 | 0.00 | 0.08 | 0.00 | 100 | 1014.4 |
| 20260905104052 | 19 | 65 | 1.6 | 3.2 | 0.00 | 0.08 | 0.00 | 100 | 1014.5 |
| 20260905103552 | 19 | 46 | 0.0 | 3.2 | 0.00 | 0.08 | 0.00 | 100 | 1014.6 |
| 20260905103052 | 19 | 37 | 0.0 | 1.6 | 0.00 | 0.08 | 0.00 | 100 | 1014.5 |
| 20260905102552 | 19 | 20 | 0.0 | 1.6 | 0.00 | 0.08 | 0.00 | 100 | 1014.5 |
| 20260905102051 | 19 | 20 | 0.0 | 4.8 | 0.00 | 0.08 | 0.00 | 100 | 1014.5 |
| 20260905101554 | 19 | 18 | 3.2 | 4.8 | 0.00 | 0.08 | 0.00 | 100 | 1014.6 |
| 20260905101051 | 19 | 66 | 0.0 | 0.0 | 0.00 | 0.08 | 0.00 | 100 | 1014.4 |
| 20260905100550 | 19 | 72 | 0.0 | 0.0 | 0.00 | 0.08 | 0.00 | 100 | 1014.4 |
| 20260905100057 | 19 | 58 | 0.0 | 0.0 | 0.00 | 0.08 | 0.00 | 99 | 1014.5 |
| 20260905095549 | 19 | 58 | 0.0 | 0.0 | 0.00 | 0.08 | 0.00 | 99 | 1014.4 |
| 20260905095050 | 19 | 58 | 0.0 | 0.0 | 0.00 | 0.08 | 0.00 | 100 | 1014.4 |
| 20260905094549 | 19 | 58 | 0.0 | 0.0 | 0.00 | 0.08 | 0.00 | 100 | 1014.5 |
| 20260905094048 | 19 | 53 | 0.0 | 0.0 | 0.00 | 0.08 | 0.00 | 100 | 1014.4 |
| 20260905093548 | 19 | 54 | 0.0 | 0.0 | 0.00 | 0.08 | 0.00 | 100 | 1014.4 |
| 20260905093048 | 19 | 54 | 0.0 | 0.0 | 0.00 | 0.08 | 0.00 | 100 | 1014.4 |
| 20260905092549 | 19 | 53 | 0.0 | 0.0 | 0.00 | 0.08 | 0.00 | 100 | 1014.4 |
| 20260905092047 | 19 | 55 | 0.0 | 0.0 | 0.00 | 0.08 | 0.00 | 99 | 1014.3 |
| 20260905091606 | 19 | 56 | 0.0 | 0.0 | 0.00 | 0.08 | 0.00 | 99 | 1014.4 |
| 20260905091049 | 19 | 60 | 0.0 | 0.0 | 0.00 | 0.08 | 0.00 | 99 | 1014.4 |
| 20260905090547 | 19 | 60 | 0.0 | 0.0 | 0.00 | 0.08 | 0.00 | 99 | 1014.4 |
| 20260905090046 | 20 | 60 | 0.0 | 0.0 | 0.00 | 0.08 | 0.00 | 99 | 1014.4 |
| 20260905085546 | 20 | 60 | 0.0 | 0.0 | 0.00 | 0.08 | 0.00 | 99 | 1014.4 |
| 20260905085045 | 20 | 60 | 0.0 | 0.0 | 0.00 | 0.08 | 0.00 | 99 | 1014.5 |
| 20260905084606 | 20 | 44 | 0.0 | 0.0 | 0.00 | 0.08 | 0.00 | 100 | 1014.5 |
| 20260905084045 | 20 | 44 | 0.0 | 0.0 | 0.00 | 0.08 | 0.00 | 100 | 1014.7 |
| 20260905083544 | 20 | 44 | 0.0 | 0.0 | 0.00 | 0.08 | 0.00 | 100 | 1014.6 |
| 20260905083043 | 20 | 44 | 0.0 | 0.0 | 0.00 | 0.08 | 0.00 | 99 | 1014.7 |
| 20260905082543 | 20 | 44 | 0.0 | 0.0 | 0.00 | 0.08 | 0.00 | 99 | 1014.7 |
| 20260905082042 | 20 | 44 | 0.0 | 0.0 | 0.00 | 0.08 | 0.00 | 99 | 1014.7 |
| 20260905081542 | 20 | 44 | 0.0 | 0.0 | 0.00 | 0.08 | 0.00 | 100 | 1014.8 |
| 20260905081040 | 20 | 37 | 0.0 | 0.0 | 0.00 | 0.08 | 0.00 | 100 | 1014.8 |
| 20260905080540 | 20 | 58 | 0.0 | 0.0 | 0.00 | 0.08 | 0.00 | 99 | 1014.9 |
| 20260905080042 | 20 | 62 | 0.0 | 0.0 | 0.00 | 0.08 | 0.00 | 99 | 1014.9 |
| 20260905075538 | 20 | 62 | 0.0 | 0.0 | 0.00 | 0.08 | 0.00 | 99 | 1014.9 |
| 20260905075038 | 20 | 62 | 0.0 | 0.0 | 0.00 | 0.08 | 0.00 | 99 | 1015.1 |
| 20260905074540 | 20 | 58 | 0.0 | 0.0 | 0.00 | 0.08 | 0.00 | 99 | 1015.1 |
| 20260905074037 | 20 | 40 | 0.0 | 0.0 | 0.00 | 0.08 | 0.00 | 100 | 1015.1 |
| 20260905073537 | 20 | 40 | 0.0 | 0.0 | 0.00 | 0.08 | 0.00 | 99 | 1015.2 |
| 20260905073039 | 20 | 40 | 0.0 | 0.0 | 0.00 | 0.08 | 0.00 | 99 | 1015.2 |
| 20260905072540 | 20 | 40 | 0.0 | 0.0 | 0.00 | 0.08 | 0.00 | 99 | 1015.2 |
| 20260905072036 | 20 | 38 | 0.0 | 0.0 | 0.00 | 0.08 | 0.00 | 99 | 1015.3 |
| 20260905071542 | 20 | 38 | 0.0 | 0.0 | 0.00 | 0.08 | 0.00 | 100 | 1015.2 |
| 20260905071037 | 20 | 60 | 0.0 | 0.0 | 0.00 | 0.08 | 0.00 | 99 | 1015.3 |
| 20260905070534 | 20 | 67 | 0.0 | 0.0 | 0.00 | 0.08 | 0.00 | 99 | 1015.3 |
| 20260905070100 | 20 | 64 | 0.0 | 0.0 | 0.00 | 0.08 | 0.00 | 99 | 1015.5 |
| 20260905065536 | 20 | 64 | 0.0 | 0.0 | 0.00 | 0.08 | 0.00 | 99 | 1015.5 |
| 20260905065032 | 20 | 64 | 0.0 | 0.0 | 0.00 | 0.08 | 0.00 | 99 | 1015.5 |
| 20260905064533 | 20 | 65 | 0.0 | 0.0 | 0.00 | 0.08 | 0.00 | 99 | 1015.5 |
| 20260905064033 | 20 | 65 | 0.0 | 0.0 | 0.00 | 0.08 | 0.00 | 99 | 1015.5 |
| 20260905063531 | 20 | 68 | 0.0 | 0.0 | 0.00 | 0.08 | 0.00 | 99 | 1015.6 |
| 20260905063031 | 20 | 68 | 0.0 | 0.0 | 0.00 | 0.08 | 0.00 | 99 | 1015.5 |
| 20260905062530 | 20 | 60 | 0.0 | 0.0 | 0.00 | 0.08 | 0.00 | 99 | 1015.7 |
| 20260905062030 | 20 | 60 | 0.0 | 0.0 | 0.00 | 0.08 | 0.00 | 99 | 1015.8 |
| 20260905061528 | 20 | 60 | 0.0 | 0.0 | 0.00 | 0.08 | 0.08 | 99 | 1015.9 |
| 20260905061027 | 20 | 60 | 0.0 | 0.0 | 0.00 | 0.08 | 0.08 | 99 | 1015.9 |
| 20260905060528 | 20 | 84 | 0.0 | 0.0 | 0.00 | 0.08 | 0.08 | 99 | 1016.1 |
| 20260905060028 | 21 | 84 | 0.0 | 0.0 | 0.00 | 0.08 | 0.08 | 99 | 1016.1 |
| 20260905055528 | 21 | 84 | 0.0 | 0.0 | 0.00 | 0.08 | 0.08 | 99 | 1016.1 |
| 20260905055028 | 21 | 61 | 0.0 | 0.0 | 0.00 | 0.08 | 0.08 | 99 | 1016.2 |
| 20260905054543 | 21 | 61 | 0.0 | 0.0 | 0.00 | 0.08 | 0.08 | 99 | 1016.2 |
| 20260905054031 | 21 | 61 | 0.0 | 0.0 | 0.00 | 0.08 | 0.08 | 99 | 1016.2 |
| 20260905053529 | 21 | 61 | 0.0 | 0.0 | 0.00 | 0.08 | 0.08 | 99 | 1016.2 |
| 20260905053039 | 21 | 60 | 0.0 | 0.0 | 0.00 | 0.08 | 0.08 | 99 | 1016.3 |